OE6PLD-13 Weather Reports


time (UTC)temp
C
wind
direction
speed
KPH
gust
KPH
rain 1hr
cm
rain 24hr
cm
rain mn
cm
humidity
%
barometer
mb
20260503034628 5 266 0.0 0.0 0.08 0.08 0.00 92 1010.1
20260503034324 5 266 0.0 0.0 0.08 0.08 0.00 92 1010.1
20260503034021 5 266 0.0 0.0 0.08 0.08 0.00 93 1010.2
20260503033717 5 266 0.0 0.0 0.08 0.08 0.00 92 1010.1
20260503033414 5 266 0.0 0.0 0.08 0.08 0.00 92 1010.1
20260503033111 5 266 0.0 0.0 0.08 0.08 0.00 92 1010.1
20260503032807 5 266 0.0 0.0 0.08 0.08 0.00 92 1010.0
20260503032504 5 266 0.0 0.0 0.08 0.08 0.00 92 1010.2
20260503032201 5 266 0.0 0.0 0.08 0.08 0.00 92 1010.1
20260503031857 5 266 0.0 0.0 0.08 0.08 0.00 92 1010.1
20260503031554 5 266 0.0 0.0 0.08 0.08 0.00 92 1010.3
20260503031250 5 266 0.0 0.0 0.08 0.08 0.00 92 1010.1
20260503030947 5 266 0.0 0.0 0.08 0.08 0.00 92 1010.1
20260503030644 5 266 0.0 0.0 0.08 0.08 0.00 91 1010.1
20260503030340 5 266 0.0 0.0 0.08 0.08 0.00 91 1010.1
20260503030037 5 266 0.0 0.0 0.08 0.08 0.00 91 1009.9
20260503025734 5 266 0.0 0.0 0.08 0.08 0.00 91 1010.1
20260503025430 5 266 0.0 0.0 0.08 0.08 0.00 91 1010.0
20260503025127 5 266 0.0 0.0 0.08 0.08 0.00 91 1010.0
20260503024824 5 266 0.0 0.0 0.08 0.08 0.00 91 1010.0
20260503024520 5 266 0.0 0.0 0.08 0.08 0.00 91 1010.1
20260503024217 5 266 0.0 0.0 0.08 0.08 0.00 91 1010.2
20260503023914 5 266 0.0 0.0 0.08 0.08 0.00 90 1010.3
20260503023610 5 266 0.0 0.0 0.08 0.08 0.00 90 1010.3
20260503023307 5 266 0.0 0.0 0.08 0.08 0.00 90 1010.1
20260503023004 5 266 0.0 0.0 0.08 0.08 0.00 90 1010.5
20260503022700 5 266 0.0 0.0 0.08 0.08 0.00 91 1010.4
20260503022357 5 266 0.0 0.0 0.08 0.08 0.00 91 1010.3
20260503022053 5 266 0.0 0.0 0.08 0.08 0.00 91 1010.3
20260503021750 5 266 0.0 0.0 0.08 0.08 0.00 90 1010.4
20260503021447 5 266 0.0 0.0 0.08 0.08 0.00 90 1010.4
20260503021143 5 266 0.0 0.0 0.08 0.08 0.00 90 1010.4
20260503020840 5 266 0.0 0.0 0.08 0.08 0.00 89 1010.2
20260503020537 5 266 0.0 0.0 0.08 0.08 0.00 89 1010.3
20260503020231 5 266 0.0 0.0 0.08 0.08 0.00 90 1010.3
20260503015927 5 266 0.0 0.0 0.08 0.08 0.00 90 1010.4
20260503015624 5 266 0.0 0.0 0.08 0.08 0.00 90 1010.5
20260503015320 5 266 0.0 0.0 0.08 0.08 0.00 89 1010.6
20260503015017 5 266 0.0 0.0 0.08 0.08 0.00 88 1010.5
20260503014714 5 266 0.0 0.0 0.08 0.08 0.00 88 1010.3
20260503014410 5 266 0.0 0.0 0.08 0.08 0.00 89 1010.6
20260503014107 6 266 0.0 0.0 0.08 0.08 0.00 88 1010.4
20260503013803 6 266 0.0 0.0 0.08 0.08 0.00 89 1010.5
20260503013500 6 266 0.0 0.0 0.08 0.08 0.00 88 1010.5
20260503013157 5 266 0.0 0.0 0.08 0.08 0.00 88 1010.4
20260503012853 6 266 0.0 0.0 0.08 0.08 0.00 89 1010.5
20260503012550 6 266 0.0 0.0 0.08 0.08 0.00 89 1010.6
20260503012247 5 266 0.0 0.0 0.08 0.08 0.00 89 1010.5
20260503011943 6 266 0.0 0.0 0.08 0.08 0.00 89 1010.7
20260503011640 6 266 0.0 0.0 0.08 0.08 0.00 89 1010.4
20260503011337 6 266 0.0 0.0 0.08 0.08 0.00 89 1010.6
20260503011033 6 266 0.0 0.0 0.08 0.08 0.00 89 1010.5
20260503010730 6 266 0.0 0.0 0.08 0.08 0.00 88 1010.6
20260503010427 6 266 0.0 0.0 0.08 0.08 0.00 88 1010.7
20260503010123 6 266 0.0 0.0 0.08 0.08 0.00 88 1010.7
20260503005820 6 266 0.0 0.0 0.08 0.08 0.00 88 1010.7
20260503005517 6 263 0.0 0.0 0.08 0.08 0.00 88 1010.5
20260503005213 6 258 0.0 0.0 0.08 0.08 0.00 88 1010.8
20260503004910 6 254 0.0 0.0 0.08 0.08 0.00 87 1010.7
20260503004607 6 248 0.0 0.0 0.08 0.08 0.00 87 1010.6
20260503004303 6 239 0.0 0.0 0.08 0.08 0.00 86 1010.8
20260503004000 6 235 0.0 0.0 0.08 0.08 0.00 87 1010.8
20260503003657 6 226 0.0 0.0 0.08 0.08 0.00 87 1010.8
20260503003353 6 223 0.0 0.0 0.08 0.08 0.00 87 1010.9
20260503003050 6 219 0.0 0.0 0.08 0.08 0.00 86 1010.9
20260503002747 6 214 0.0 0.0 0.08 0.08 0.00 86 1011.0
20260503002443 6 209 0.0 0.0 0.08 0.08 0.00 87 1010.9
20260503002140 6 199 0.0 0.0 0.08 0.08 0.00 87 1011.0
20260503001837 6 178 0.0 0.0 0.08 0.08 0.00 87 1010.8
20260503001534 6 146 0.0 0.0 0.08 0.08 0.00 86 1011.0
20260503001230 6 126 0.0 0.0 0.08 0.08 0.00 85 1010.9
20260503000927 6 118 0.0 0.0 0.08 0.08 0.00 86 1011.0
20260503000623 6 109 0.0 0.0 0.08 0.08 0.00 86 1010.9
20260503000320 6 104 0.0 0.0 0.08 0.08 0.00 85 1011.0
20260503000017 6 103 0.0 0.0 0.08 0.08 0.00 85 1011.0
20260502235713 6 101 0.0 0.0 0.08 0.08 0.00 85 1011.2
20260502235408 6 98 0.0 0.0 0.08 0.08 0.00 85 1011.0
20260502235105 6 95 0.0 0.0 0.08 0.08 0.00 84 1010.9
20260502234802 7 92 0.0 0.0 0.08 0.08 0.00 84 1011.1
20260502234458 7 90 0.0 0.0 0.08 0.08 0.00 82 1011.0
20260502234155 7 89 0.0 0.0 0.08 0.08 0.00 84 1011.3
20260502233851 7 87 0.0 0.0 0.08 0.08 0.00 84 1011.2
20260502233548 7 86 0.0 0.0 0.08 0.08 0.00 84 1011.1
20260502233245 7 86 0.0 0.0 0.08 0.08 0.00 83 1011.3
20260502232941 7 86 0.0 0.0 0.08 0.08 0.00 83 1011.2
20260502232638 8 86 0.0 1.6 0.08 0.08 0.00 81 1011.3
20260502232334 7 86 0.0 3.2 0.08 0.08 0.00 82 1011.2
20260502232031 7 86 1.6 3.2 0.08 0.08 0.00 83 1011.2
20260502231728 7 86 0.0 0.0 0.08 0.08 0.00 84 1011.4
20260502231424 7 86 0.0 0.0 0.08 0.08 0.00 83 1011.4
20260502231121 7 86 0.0 0.0 0.08 0.08 0.00 84 1011.4
20260502230818 7 86 0.0 0.0 0.08 0.08 0.00 83 1011.1
20260502230514 8 86 0.0 0.0 0.08 0.08 0.00 83 1011.5
20260502230211 8 86 0.0 0.0 0.08 0.08 0.00 82 1011.2
20260502225908 8 86 0.0 0.0 0.08 0.08 0.00 82 1011.5
20260502225604 8 86 0.0 0.0 0.08 0.08 0.00 81 1011.2
20260502225301 8 86 0.0 0.0 0.08 0.08 0.00 81 1011.3
20260502224958 8 86 0.0 0.0 0.08 0.08 0.00 82 1011.5
20260502224654 8 86 0.0 0.0 0.08 0.08 0.00 82 1011.4
20260502224351 8 86 0.0 0.0 0.08 0.08 0.00 82 1011.5
20260502224047 8 86 0.0 0.0 0.08 0.08 0.00 81 1011.5
20260502223744 8 86 0.0 0.0 0.08 0.08 0.00 80 1011.4
20260502223441 8 86 0.0 0.0 0.08 0.08 0.00 80 1011.5
20260502223137 8 86 0.0 0.0 0.08 0.08 0.00 81 1011.5
20260502222834 8 86 0.0 0.0 0.08 0.08 0.00 80 1011.5
20260502222531 8 86 0.0 0.0 0.08 0.08 0.00 80 1011.4
20260502222227 8 86 0.0 0.0 0.08 0.08 0.00 80 1011.5
20260502221924 8 86 0.0 0.0 0.08 0.08 0.00 79 1011.7
20260502221621 8 86 0.0 0.0 0.08 0.08 0.00 78 1011.6
20260502221318 9 86 0.0 0.0 0.08 0.08 0.00 77 1011.6
20260502221014 9 86 0.0 0.0 0.08 0.08 0.00 79 1011.6
20260502220711 9 86 0.0 0.0 0.08 0.08 0.00 79 1011.6
20260502220407 9 86 0.0 0.0 0.08 0.08 0.00 79 1011.7
20260502220104 9 86 0.0 0.0 0.08 0.08 0.00 78 1011.6
20260502215801 9 86 0.0 0.0 0.08 0.08 0.00 76 1011.5
20260502215458 9 86 0.0 0.0 0.08 0.08 0.00 77 1011.7
20260502215154 9 86 0.0 0.0 0.08 0.08 0.00 79 1011.5
20260502214851 9 86 0.0 0.0 0.08 0.08 0.00 78 1011.7
20260502214548 9 86 0.0 0.0 0.08 0.08 0.00 76 1011.5
20260502214244 9 86 0.0 0.0 0.08 0.08 0.00 75 1011.8
20260502213941 10 86 0.0 0.0 0.08 0.08 0.00 76 1011.6
20260502213638 10 86 0.0 0.0 0.08 0.08 0.00 77 1011.5
20260502213334 10 86 0.0 0.0 0.08 0.08 0.00 76 1011.6
20260502213031 10 86 0.0 0.0 0.08 0.08 0.00 76 1011.6
20260502212727 10 86 0.0 0.0 0.08 0.08 0.00 75 1011.5
20260502212424 10 86 0.0 0.0 0.08 0.08 0.00 75 1011.5
20260502212121 10 86 0.0 0.0 0.08 0.08 0.00 75 1011.5
20260502211817 10 86 0.0 0.0 0.08 0.08 0.00 75 1011.5
20260502211514 10 86 0.0 0.0 0.08 0.08 0.00 73 1011.5
20260502211211 10 86 0.0 0.0 0.08 0.08 0.00 75 1011.7
20260502210907 10 86 0.0 0.0 0.08 0.08 0.00 75 1011.4
20260502210604 10 86 0.0 0.0 0.08 0.08 0.00 74 1011.5
20260502210301 10 86 0.0 0.0 0.08 0.08 0.00 74 1011.6
20260502205957 10 86 0.0 0.0 0.08 0.08 0.00 74 1011.6
20260502205654 11 86 0.0 0.0 0.08 0.08 0.00 74 1011.7
20260502205351 11 86 0.0 0.0 0.08 0.08 0.00 73 1011.7
20260502205047 11 86 0.0 0.0 0.08 0.08 0.00 72 1011.6
20260502204744 11 86 0.0 0.0 0.08 0.08 0.00 72 1011.6
20260502204441 11 86 0.0 0.0 0.08 0.08 0.00 73 1011.8
20260502204137 11 86 0.0 0.0 0.08 0.08 0.00 73 1011.7
20260502203834 11 86 0.0 0.0 0.08 0.08 0.00 71 1011.8
20260502203531 11 86 0.0 0.0 0.08 0.08 0.00 71 1011.7
20260502203227 11 86 0.0 0.0 0.08 0.08 0.00 71 1011.9
20260502202924 11 86 0.0 0.0 0.08 0.08 0.00 70 1011.8
20260502202621 11 86 0.0 0.0 0.08 0.08 0.00 71 1011.7
20260502202318 11 86 0.0 0.0 0.08 0.08 0.00 72 1011.7
20260502202014 11 86 0.0 0.0 0.08 0.08 0.00 69 1011.8
20260502201711 11 86 0.0 0.0 0.08 0.08 0.00 69 1011.7
20260502201408 12 86 0.0 0.0 0.08 0.08 0.00 69 1011.8
20260502201104 12 86 0.0 0.0 0.08 0.08 0.00 67 1011.8
20260502200801 12 86 0.0 0.0 0.08 0.08 0.00 67 1011.7
20260502200458 12 86 0.0 0.0 0.08 0.08 0.00 65 1011.8
20260502200154 12 86 0.0 0.0 0.08 0.08 0.00 63 1011.9
20260502195851 12 86 0.0 0.0 0.08 0.08 0.00 65 1011.7
20260502195547 12 86 0.0 0.0 0.08 0.08 0.00 65 1011.7
20260502195244 13 86 0.0 0.0 0.08 0.08 0.00 66 1011.8
20260502194941 13 86 0.0 0.0 0.08 0.08 0.00 64 1011.6
20260502194637 13 86 0.0 0.0 0.08 0.08 0.00 64 1011.5
20260502194334 13 86 0.0 0.0 0.08 0.08 0.00 64 1011.7
20260502194030 13 86 0.0 0.0 0.08 0.08 0.00 64 1011.7
20260502193727 13 86 0.0 0.0 0.08 0.08 0.00 66 1011.5
20260502193424 13 86 0.0 0.0 0.08 0.08 0.00 64 1011.7
20260502193120 13 86 0.0 0.0 0.08 0.08 0.00 66 1011.6
20260502192817 13 86 0.0 0.0 0.08 0.08 0.00 65 1011.6
20260502192514 13 86 0.0 0.0 0.08 0.08 0.00 62 1011.5
20260502192210 13 86 0.0 0.0 0.08 0.08 0.00 62 1011.4
20260502191907 14 86 0.0 0.0 0.08 0.08 0.00 59 1011.4
20260502191603 14 86 0.0 0.0 0.08 0.08 0.00 59 1011.3
20260502191300 15 86 0.0 0.0 0.08 0.08 0.00 60 1011.3
20260502190957 15 84 0.0 0.0 0.08 0.08 0.00 59 1011.4
20260502190653 15 84 0.0 0.0 0.08 0.08 0.00 59 1011.5
20260502190350 15 83 0.0 0.0 0.08 0.08 0.00 58 1011.3
20260502190047 15 82 0.0 0.0 0.08 0.08 0.00 57 1011.4
20260502185743 15 82 0.0 0.0 0.08 0.08 0.00 58 1011.3
20260502185440 16 81 0.0 0.0 0.08 0.08 0.00 53 1011.2
20260502185137 16 81 0.0 0.0 0.08 0.08 0.00 55 1011.2
20260502184832 16 80 0.0 0.0 0.08 0.08 0.00 53 1011.4
20260502184529 16 80 0.0 0.0 0.08 0.08 0.00 53 1011.2
20260502184225 16 79 0.0 0.0 0.08 0.08 0.00 53 1011.3
20260502183922 16 78 0.0 0.0 0.08 0.08 0.00 51 1010.9
20260502183619 16 77 0.0 0.0 0.08 0.08 0.00 51 1011.0
20260502183315 17 75 0.0 0.0 0.08 0.08 0.00 51 1010.9
20260502183012 17 74 0.0 0.0 0.08 0.08 0.00 50 1010.9
20260502182709 17 71 0.0 0.0 0.08 0.08 0.00 49 1010.7
20260502182405 17 68 0.0 0.0 0.08 0.08 0.00 49 1010.7
20260502182102 18 62 0.0 0.0 0.08 0.08 0.00 48 1010.8
20260502181759 18 56 0.0 0.0 0.08 0.08 0.00 47 1010.8
20260502181455 18 44 0.0 0.0 0.08 0.08 0.00 46 1010.9
20260502181152 19 25 0.0 3.2 0.08 0.08 0.00 44 1010.6
20260502180849 19 3 0.0 1.6 0.08 0.08 0.00 44 1010.5
20260502180545 20 344 0.0 0.0 0.08 0.08 0.00 44 1010.5
20260502180242 20 318 0.0 0.0 0.08 0.08 0.00 44 1010.4
20260502170438 23 264 1.6 6.4 0.08 0.08 0.00 34 1010.4
20260502170135 23 264 3.2 6.4 0.08 0.08 0.00 33 1010.2
20260502164315 24 266 0.0 6.4 0.08 0.08 0.00 32 1010.3
20260502164011 25 267 1.6 4.8 0.08 0.08 0.00 32 1010.3
20260502163708 25 268 0.0 4.8 0.08 0.08 0.00 32 1010.4
20260502163404 24 265 1.6 4.8 0.08 0.08 0.00 32 1010.2
20260502163101 24 265 1.6 4.8 0.08 0.08 0.00 32 1010.3
20260502162758 24 266 1.6 6.4 0.08 0.08 0.00 32 1010.5
20260502162454 25 268 4.8 6.4 0.08 0.08 0.00 32 1010.4
20260502162151 25 268 1.6 6.4 0.08 0.08 0.00 32 1010.6
20260502161848 25 270 3.2 4.8 0.08 0.08 0.00 31 1010.6
20260502161544 25 271 0.0 4.8 0.08 0.08 0.00 31 1010.6
20260502161241 26 271 3.2 4.8 0.08 0.08 0.00 30 1010.4
20260502160938 26 272 0.0 3.2 0.08 0.08 0.00 29 1010.8
20260502160634 25 270 0.0 4.8 0.08 0.08 0.00 31 1010.7
20260502160331 25 270 3.2 4.8 0.08 0.08 0.00 31 1010.8
20260502152044 26 270 0.0 3.2 0.08 0.08 0.00 31 1011.0
20260502151741 26 270 0.0 3.2 0.08 0.08 0.00 29 1011.0
20260502151437 26 267 0.0 3.2 0.08 0.08 0.00 29 1011.0
20260502151134 25 266 0.0 4.8 0.08 0.08 0.00 30 1011.3
20260502150831 25 264 1.6 4.8 0.08 0.08 0.00 31 1011.0
20260502150527 25 264 1.6 8.0 0.08 0.08 0.00 31 1011.4
20260502150224 26 265 0.0 8.0 0.08 0.08 0.00 30 1011.2
20260502140117 25 263 0.0 4.8 0.08 0.08 0.00 31 1011.9
20260502130616 25 264 0.0 4.8 0.08 0.08 0.00 32 1012.4
20260502130313 25 262 1.6 4.8 0.08 0.08 0.00 30 1012.5
20260502123543 25 263 1.6 4.8 0.08 0.08 0.00 31 1012.9
20260502123239 23 263 1.6 6.4 0.08 0.08 0.00 31 1012.8
20260502122936 24 263 4.8 6.4 0.08 0.08 0.00 30 1013.0
20260502122633 24 262 1.6 4.8 0.08 0.08 0.00 31 1012.9
20260502122329 25 261 3.2 4.8 0.08 0.08 0.00 29 1013.0
20260502122026 25 260 1.6 3.2 0.08 0.08 0.00 31 1013.0
20260502121723 25 259 0.0 8.0 0.08 0.08 0.00 31 1013.0
20260502121419 25 260 0.0 16.1 0.08 0.08 0.00 32 1013.0
20260502121114 23 260 4.8 16.1 0.08 0.08 0.00 33 1013.0
20260502120811 24 259 1.6 8.0 0.08 0.08 0.00 34 1013.3
20260502120508 23 258 4.8 8.0 0.08 0.08 0.00 31 1013.2
20260502120204 23 258 6.4 9.7 0.08 0.08 0.00 30 1013.1
20260502115901 23 258 0.0 8.0 0.08 0.08 0.00 29 1008.9
20260502115557 23 259 4.8 6.4 0.08 0.08 0.00 29 1008.8
20260502115254 23 258 3.2 9.7 0.08 0.08 0.00 28 1008.8
20260502114950 23 257 1.6 9.7 0.08 0.08 0.00 30 1008.8
20260502114647 23 257 8.0 14.5 0.08 0.08 0.00 31 1009.1
20260502114344 23 257 1.6 8.0 0.08 0.08 0.00 30 1009.1
20260502114040 23 257 3.2 6.4 0.08 0.08 0.00 30 1009.0
20260502113737 22 259 1.6 12.9 0.08 0.08 0.00 32 1009.1
20260502113434 23 257 9.7 14.5 0.08 0.08 0.00 31 1009.2
20260502113130 23 256 4.8 14.5 0.08 0.08 0.00 31 1009.3
20260502112827 23 255 6.4 8.0 0.08 0.08 0.00 31 1009.3
20260502112524 23 255 4.8 8.0 0.08 0.08 0.00 31 1009.3
20260502112220 23 255 4.8 8.0 0.08 0.08 0.00 32 1009.2
20260502111917 23 256 0.0 8.0 0.08 0.08 0.00 31 1009.3
20260502111614 23 255 4.8 8.0 0.08 0.08 0.00 32 1009.3
20260502111310 23 255 6.4 8.0 0.08 0.08 0.00 33 1009.2
20260502111007 23 257 1.6 6.4 0.08 0.08 0.00 32 1009.3
20260502110703 22 255 4.8 6.4 0.08 0.08 0.00 33 1009.6
20260502110400 22 255 1.6 8.0 0.08 0.08 0.00 33 1009.3
20260502110057 23 254 3.2 6.4 0.08 0.08 0.00 32 1009.4
20260502105754 22 254 1.6 4.8 0.08 0.08 0.00 33 1009.7
20260502105450 22 251 3.2 8.0 0.08 0.08 0.00 33 1009.7
20260502105147 22 250 1.6 9.7 0.08 0.08 0.00 34 1009.6
20260502104843 23 249 8.0 9.7 0.08 0.08 0.00 34 1009.7
20260502104540 22 248 4.8 8.0 0.08 0.08 0.00 34 1009.7
20260502104237 22 248 4.8 12.9 0.08 0.08 0.00 35 1009.7
20260502103933 22 248 0.0 8.0 0.08 0.08 0.00 34 1009.8
20260502103630 22 243 4.8 8.0 0.08 0.08 0.00 36 1009.7
20260502103327 23 239 0.0 6.4 0.08 0.08 0.00 34 1009.7
20260502103023 23 237 0.0 6.4 0.08 0.08 0.00 37 1009.9
20260502102720 22 235 0.0 6.4 0.08 0.08 0.00 37 1010.0
20260502102416 22 233 4.8 12.9 0.08 0.08 0.00 36 1009.8
20260502102113 22 231 6.4 12.9 0.08 0.08 0.00 37 1009.8
20260502101810 22 226 4.8 9.7 0.08 0.08 0.00 35 1010.0
20260502101506 21 226 4.8 9.7 0.08 0.08 0.00 37 1010.1
20260502101203 21 224 1.6 16.1 0.08 0.08 0.00 38 1010.0
20260502100900 21 215 0.0 4.8 0.08 0.08 0.00 36 1009.9
20260502100556 21 217 3.2 12.9 0.08 0.08 0.00 38 1010.2
20260502100253 21 213 1.6 6.4 0.08 0.08 0.00 37 1010.1
20260502091359 21 115 0.0 4.8 0.08 0.08 0.00 36 1010.8
20260502091056 21 123 1.6 12.9 0.08 0.08 0.00 39 1010.7
20260502090752 21 112 8.0 12.9 0.08 0.08 0.00 37 1010.8
20260502090449 21 108 0.0 3.2 0.08 0.08 0.00 38 1010.9
20260502090146 21 112 3.2 6.4 0.08 0.08 0.00 37 1010.8
20260502071448 18 88 0.0 3.2 0.08 0.08 0.00 49 1011.3
20260502071144 18 87 0.0 0.0 0.08 0.08 0.00 48 1011.4
20260502070841 18 87 0.0 0.0 0.08 0.08 0.00 50 1011.6
20260502070538 18 87 0.0 0.0 0.08 0.08 0.00 50 1011.6
20260502070234 17 87 0.0 0.0 0.08 0.08 0.00 52 1011.6
20260502065931 17 87 0.0 3.2 0.08 0.08 0.00 52 1011.3
20260502065628 17 87 0.0 3.2 0.08 0.08 0.00 54 1011.5
20260502065324 17 86 0.0 3.2 0.08 0.08 0.00 52 1011.5
20260502065021 16 86 0.0 3.2 0.08 0.08 0.00 55 1011.6
20260502064718 17 86 0.0 1.6 0.08 0.08 0.00 54 1011.7
20260502064414 16 87 0.0 0.0 0.08 0.08 0.00 55 1011.7
20260502064111 17 88 0.0 0.0 0.08 0.08 0.00 54 1011.5
20260502063807 16 89 0.0 0.0 0.08 0.08 0.00 54 1011.6
20260502063504 16 90 0.0 0.0 0.08 0.08 0.00 56 1011.7
20260502063201 16 90 0.0 0.0 0.08 0.08 0.00 56 1011.8
20260502062857 15 92 0.0 0.0 0.08 0.08 0.00 57 1011.6
20260502062554 14 94 0.0 3.2 0.08 0.08 0.00 61 1011.6
20260502062251 14 96 0.0 3.2 0.08 0.08 0.00 61 1011.6
20260502061947 13 97 0.0 3.2 0.08 0.08 0.00 61 1011.6
20260502061644 13 97 0.0 3.2 0.08 0.08 0.00 62 1011.7
20260502061341 13 98 1.6 3.2 0.08 0.08 0.00 63 1011.7
20260502061037 13 100 0.0 3.2 0.08 0.08 0.00 63 1011.6
20260502060734 12 102 0.0 4.8 0.08 0.08 0.00 63 1011.9
20260502060430 12 106 1.6 4.8 0.08 0.08 0.00 64 1011.8
20260502060127 12 105 3.2 4.8 0.08 0.08 0.00 65 1011.9
20260502055824 12 99 3.2 4.8 0.08 0.08 0.00 65 1011.9
20260502055520 12 79 3.2 4.8 0.08 0.08 0.00 65 1011.6
20260502055217 11 26 0.0 4.8 0.08 0.08 0.00 67 1011.8
20260502054914 11 305 0.0 0.0 0.08 0.08 0.00 67 1012.0
20260502054610 11 279 0.0 3.2 0.08 0.08 0.00 68 1012.1
20260502054307 11 273 0.0 1.6 0.08 0.08 0.00 70 1011.9
20260502054004 10 273 0.0 1.6 0.08 0.08 0.00 70 1011.9
20260502053700 10 272 0.0 0.0 0.08 0.08 0.00 73 1011.8
20260502053357 10 270 0.0 0.0 0.08 0.08 0.00 72 1011.7
20260502053054 10 269 0.0 0.0 0.08 0.08 0.00 74 1011.9
20260502052750 9 269 0.0 0.0 0.08 0.08 0.00 75 1011.8
20260502052447 9 268 0.0 0.0 0.08 0.08 0.00 76 1011.8
20260502052143 8 268 0.0 0.0 0.08 0.08 0.00 75 1012.0
20260502051840 8 268 0.0 1.6 0.08 0.08 0.00 77 1011.9
20260502051537 8 267 0.0 1.6 0.08 0.08 0.00 77 1012.1
20260502051233 8 267 0.0 0.0 0.08 0.08 0.00 78 1011.8
20260502050930 7 267 0.0 0.0 0.08 0.08 0.00 79 1011.7
20260502050626 7 266 0.0 0.0 0.08 0.08 0.00 79 1011.8
20260502050323 7 266 0.0 0.0 0.08 0.08 0.00 80 1011.9
20260502050020 7 266 0.0 0.0 0.08 0.08 0.00 81 1011.9
20260502045716 6 266 0.0 0.0 0.08 0.08 0.00 81 1012.0
20260502045413 6 266 0.0 0.0 0.08 0.08 0.00 82 1011.8
20260502045110 6 266 0.0 0.0 0.08 0.08 0.00 83 1012.0
20260502044806 6 266 0.0 0.0 0.08 0.08 0.00 84 1011.8
20260502044504 5 266 0.0 0.0 0.08 0.08 0.00 85 1011.8
20260502044200 5 266 0.0 0.0 0.08 0.08 0.00 87 1011.8
20260502043856 5 266 0.0 0.0 0.08 0.08 0.00 88 1011.8
20260502043553 4 266 0.0 0.0 0.08 0.08 0.00 89 1011.7
20260502043250 4 266 0.0 0.0 0.08 0.08 0.00 89 1011.7
20260502042946 4 266 0.0 0.0 0.08 0.08 0.00 90 1011.6
20260502042643 4 266 0.0 0.0 0.08 0.08 0.00 90 1011.7
20260502042339 4 266 0.0 0.0 0.08 0.08 0.00 90 1011.9
20260502042036 4 266 0.0 0.0 0.08 0.08 0.00 90 1011.7
20260502041733 4 266 0.0 0.0 0.08 0.08 0.00 90 1011.7
20260502041429 4 266 0.0 0.0 0.08 0.08 0.00 90 1011.6
20260502041126 4 266 0.0 0.0 0.08 0.08 0.00 90 1011.8
20260502040823 4 266 0.0 0.0 0.08 0.08 0.00 90 1011.7
20260502040519 3 266 0.0 0.0 0.08 0.08 0.00 90 1011.6
20260502040216 4 266 0.0 0.0 0.08 0.08 0.00 90 1011.5
20260502035913 3 266 0.0 0.0 0.08 0.08 0.00 90 1011.4
20260502035609 3 266 0.0 0.0 0.08 0.08 0.00 90 1011.6
20260502035306 3 266 0.0 0.0 0.08 0.08 0.00 90 1011.7
20260502035003 3 266 0.0 0.0 0.08 0.08 0.00 90 1011.5